Probability
0 0 0 0 0 0 0 0 0 0 0 0 0 0 0 0 0 0 0 0 0 0 0 0 0 0 0 0 0 0 0 0 0 0 0 0 0 0 0 0 0 0 0
0 0 0 0 0 0 0 0 0 0 0 0 0 0 0 0 0 0 0 0 0 0 0 0 0 0 0 0 0 0 0 0 0 0 0 0 0 0 0 0 0 0 0
0 0 0 0 0 0 0 0 0 0 0 0 0 0 0 0 0 0 0 0 0 0 0 0 0 0 0 0 0 0 0 0 0 0 0 0 0 0 0 0 0 0 0
0 0 0 0 0 0 0 0 0 0 0 0 0 0 0 0 0 0 0 0 0 0 0 0 0 0 0 0 0 0 0 0 0 0 0 0 0 0 0 0 0 0 0
0 0 0 0 0 0 0 0 0 0 0 0 0 0 0 0 0 0 0 0 0 0 0 0 0 0 0 0 0 0 0 0 0 0 0 0 0 0 0 0 0 0 0
0 0 0 0 0 0 0 0 0 0 0 0 0 0 0 0 0 0 0 0 0 0 0 0 0 0 0 0 0 0 0 0 0 0 0 0 0 0 0 0 0 0 0
0 0 0 0 0 0 0 0 0 0 0 0 0 0 0 0 0 0 0 0 0 0 0 0 0 0 0 0 0 0 0 0 0 0 0 0 0 0 0 0 0 0 0
0 0 0 0 0 0 0 0 0 0 0 0 0 0 0 0 0 0 0 0 0 0 0 0 0 0 0 0 0 0 0 0 0 0 0 0 0 0 0 0 0 0 0
0 0 0 0 0 0 0 0 0 0 0 0 0 0 0 0 0 0 0 0 0 0 0 0 0 0 0 0 0 0 0 0 0 0 0 0 0 0 0 0 0 0 0
0 0 0 0 0 0 0 0 0 0 0 0 0 0 0 0 0 0 0 0 0 0 0 0 0 0 0 0 0 0 0 0 0 0 0 0 0 0 0 0 0 0 0
0 0 0 0 0 0 0 0 0 0 0 0 0 0 0 0 0 0 0 0 0 0 0 0 0 0 0 0 0 0 0 0 0 0 0 0 0 0 0 0 0 0 0
0 0 0 0 0 0 0 0 0 0 0 0 0 0 0 0 0 0 0 0 0 0 0 0 0 0 0 0 0 0 0 0 0 0 0 0 0 0 0 0 0 0 0
0 0 0 0 0 0 0 0 0 0 0 0 0 0 0 0 0 0 0 0 0 0 0 0 0 0 0 0 0 0 0 0 0 0 0 0 0 0 0 0 0 0 0
0 0 0 0 0 0 0 0 0 0 0 0 0 0 0 0 0 0 0 0 0 0 0 0 0 0 0 0 0 0 0 0 0 0 0 0 0 0 0 0 0 0 0
0 0 0 0 0 0 0 0 0 0 0 0 0 0 0 0 0 0 0 0 0 0 0 0 0 0 0 0 0 0 0 0 0 0 0 0 0 0 0 0 0 0 0
0 0 0 0 0 0 0 0 0 0 0 0 0 0 0 0 0 0 0 0 0 0 0 0 0 0 0 0 0 0 0 0 0 0 0 0 0 0 0 0 0 0 0
0 0 0 0 0 0 0 0 0 0 0 0 0 0 0 0 0 0 0 0 0 0 0 0 0 0 0 0 0 0 0 0 0 0 0 0 0 0 0 0 0 0 0
0 0 0 0 0 0 0 0 0 0 0 0 0 0 0 0 0 0 0 0 0 0 0 0 0 0 0 0 0 0 0 0 0 0 0 0 0 0 0 0 0 0 0
0 0 0 0 0 0 0 0 0 0 0 0 0 0 0 0 0 0 0 0 0 0 0 0 0 0 0 0 0 0 0 0 0 0 0 0 0 0 0 0 0 0 0
1 0 0 0 0 0 0 0 0 0 0 0 0 0 0 0 0 0 0 0 0 0 0 0 0 0 0 0 0 0 0 0 0 0 0 0 0 0 0 0 0 0 0
2 1 0 0 0 0 0 0 0 0 0 0 0 0 0 0 0 0 0 0 0 0 0 0 0 0 0 0 0 0 0 0 0 0 0 0 0 0 0 0 0 0 0
2 1 0 0 0 0 0 0 0 0 0 0 0 0 0 0 0 0 0 0 0 0 0 0 0 0 0 0 0 0 0 0 0 0 0 0 0 0 0 0 0 0 0
1 1 0 0 0 0 0 0 0 0 0 0 0 0 0 0 0 0 0 0 0 0 0 0 0 0 0 0 0 0 0 0 0 0 0 0 0 0 0 0 0 0 0
2 2 1 1 1 0 0 0 0 0 0 0 0 0 0 0 0 0 0 0 0 0 0 0 0 0 0 0 0 0 0 0 0 0 0 0 0 0 0 0 0 0 0
2 2 2 2 2 1 0 0 0 0 0 0 0 0 0 0 0 0 0 0 0 0 0 0 0 0 0 0 0 0 0 0 0 0 0 0 0 0 0 0 0 0 0
1 1 1 2 2 2 1 0 0 0 0 0 0 0 0 0 0 0 0 0 0 0 0 0 0 0 0 0 0 0 0 0 0 0 0 0 0 0 0 0 0 0 0
Wind_Speed
7 6 4 4 4 4 4 4 4 4 4 4 3 4 3 2 2 1 1 3 3 3 3 4 4 4 4 4 4 4 5 5 6 6 7 7 8 8 9 9 10 10 11
7 7 6 5 4 4 4 4 4 4 3 3 3 3 3 2 2 1 1 2 3 2 1 2 2 3 3 3 3 3 3 4 5 5 6 6 7 8 8 9 10 10 11
9 7 6 5 5 5 5 4 4 3 3 3 3 2 2 2 1 1 1 1 2 3 2 0 1 1 1 1 1 2 2 3 4 4 5 6 7 7 8 9 9 10 11
10 8 7 6 5 5 5 4 4 3 3 2 2 1 1 1 1 1 1 0 0 1 2 1 1 1 1 1 1 1 2 3 4 4 5 6 6 7 8 9 10 10 11
10 8 7 6 7 5 4 4 3 3 3 3 2 1 1 1 1 1 1 1 1 1 1 2 2 2 2 3 3 3 3 3 4 5 6 6 7 8 9 9 10 11 12
11 9 7 7 7 6 4 4 4 3 3 3 2 1 1 1 1 2 2 1 2 2 1 1 1 2 3 4 4 5 5 5 5 6 6 7 8 9 9 10 11 11 12
12 10 7 8 7 7 7 6 4 4 3 3 3 1 2 1 2 2 2 2 2 2 2 2 1 1 2 4 5 6 7 7 7 7 8 8 9 9 10 10 11 12 13
13 11 10 9 8 6 7 7 5 4 3 3 4 2 1 3 2 2 2 3 3 2 3 3 3 3 2 2 4 7 8 9 9 9 9 9 10 10 11 11 12 12 13
13 11 11 10 9 9 8 8 7 7 5 3 2 4 3 3 2 2 2 2 3 3 3 3 4 4 4 3 3 6 8 10 10 10 10 10 11 11 12 12 12 13 13
13 12 12 11 11 9 8 9 8 5 6 4 2 1 2 3 2 2 2 2 2 4 4 4 4 4 4 3 5 8 9 10 11 11 11 11 12 12 13 12 13 13 14
12 13 13 12 11 9 10 9 8 7 6 6 5 3 2 1 2 2 3 3 2 3 3 4 4 4 4 4 4 7 11 11 11 12 12 12 12 13 13 14 14 14 15
10 13 13 12 12 10 10 10 10 10 8 6 5 4 4 4 4 4 4 3 3 3 2 3 4 4 4 4 6 10 11 12 12 12 12 12 12 13 14 14 14 15 16
10 14 13 12 11 10 10 10 10 9 9 8 8 6 5 4 4 4 3 2 2 3 3 2 4 4 4 4 5 10 11 12 12 12 12 12 12 13 13 14 15 15 16
11 12 13 12 11 11 11 10 8 9 9 9 9 8 5 5 4 4 4 4 2 2 3 4 2 3 3 3 5 8 6 11 11 11 11 12 12 13 13 14 14 15 15
9 13 14 12 11 12 12 11 9 10 9 9 9 9 7 5 5 5 4 5 4 3 4 4 3 2 2 2 4 3 4 9 11 11 11 11 12 12 13 13 14 14 15
11 13 14 13 12 12 12 11 9 9 10 9 7 8 8 5 5 5 5 4 5 5 5 3 4 2 1 2 4 3 4 9 10 11 11 11 11 11 11 12 13 13 14
12 14 14 14 13 13 12 12 11 11 12 10 9 10 10 8 6 6 5 4 5 5 6 4 3 2 2 2 2 2 3 3 4 9 10 10 10 10 10 11 12 12 13
12 13 13 13 13 13 13 13 13 12 12 12 11 10 10 8 9 7 6 6 6 6 6 6 3 2 3 2 2 2 2 2 3 7 9 9 9 9 10 10 11 12 13
12 12 13 14 14 13 14 13 13 12 12 12 11 11 11 10 10 7 7 7 6 5 5 5 4 2 2 1 1 2 2 2 3 4 7 8 9 9 9 10 11 11 11
13 14 13 13 13 13 13 12 12 11 11 10 10 11 11 11 11 10 8 8 6 5 4 4 4 2 2 1 1 2 3 2 2 2 4 5 7 8 9 10 10 10 11
13 13 12 11 12 11 11 13 12 11 11 10 9 9 10 11 12 10 7 7 7 5 4 4 4 2 2 1 2 1 2 2 2 1 2 3 3 3 4 7 9 10 12
12 12 13 12 12 10 14 17 13 11 10 10 9 8 8 10 11 13 12 11 9 7 6 5 4 4 4 3 2 1 1 1 3 1 1 3 2 3 3 3 8 11 11
12 12 12 12 12 12 16 18 18 11 10 10 9 8 6 7 9 8 9 9 7 8 8 6 5 5 4 3 3 2 2 2 3 1 1 3 2 3 3 4 10 10 11
11 11 11 12 11 11 15 17 17 12 8 8 8 9 8 8 8 8 6 5 4 4 5 5 4 4 3 3 3 3 2 1 1 1 1 2 2 3 4 3 7 9 11
9 10 10 11 11 11 15 16 15 9 7 7 7 7 8 8 11 12 8 7 5 3 4 6 5 4 4 4 4 3 2 1 1 1 0 1 2 4 3 3 4 10 12
8 8 8 9 11 10 14 17 16 8 7 6 5 6 9 10 12 13 9 8 7 5 4 4 3 3 3 3 4 3 2 1 1 2 1 1 2 3 4 3 3 4 5
Wind_Direction
145 139 133 126 123 119 118 115 112 115 114 111 111 118 120 114 102 66 14 45 75 99 112 113 109 102 95 85 78 70 58 47 41 36 30 27 22 18 13 10 10 7 4
151 147 142 138 135 133 129 127 128 126 122 119 116 120 127 122 106 89 34 19 31 47 110 124 116 110 103 93 77 63 46 33 28 23 18 16 10 8 4 2 1 359 357
155 153 151 150 148 138 130 120 115 111 116 117 117 122 127 135 138 130 84 32 7 6 11 77 147 149 133 100 81 51 26 10 7 4 2 0 358 356 354 353 353 351 349
159 156 157 158 150 141 136 133 130 120 122 127 130 131 126 144 178 182 168 150 11 350 342 335 322 272 240 262 285 323 336 340 341 340 343 344 344 343 342 343 342 341 340
164 162 164 160 152 147 145 147 132 134 141 145 142 125 121 193 220 210 211 222 232 248 305 319 330 321 283 274 280 285 294 307 317 324 329 331 332 331 331 332 332 332 332
168 165 164 162 157 154 154 149 138 127 134 141 119 85 357 269 249 238 235 236 243 243 244 274 323 317 299 280 280 285 290 297 304 311 316 319 321 322 323 324 325 326 326
172 171 169 165 166 169 168 156 140 138 128 127 103 45 332 282 246 243 237 238 246 245 239 238 240 257 293 290 286 284 288 292 296 301 305 308 311 314 316 318 321 322 322
177 178 173 174 173 167 165 165 150 141 141 155 135 120 320 322 292 239 229 231 241 244 241 236 232 236 244 261 278 282 286 288 290 294 298 303 306 309 312 315 316 319 320
181 180 179 175 176 176 179 178 169 158 158 178 162 149 161 227 287 303 252 237 236 237 245 244 237 237 234 233 256 276 277 281 286 290 295 299 302 305 307 310 312 315 316
183 183 180 179 180 181 179 181 179 169 156 168 182 160 151 155 160 301 309 277 248 241 242 239 237 237 231 229 240 254 264 272 279 285 290 294 299 302 305 308 311 313 314
186 185 183 183 183 185 183 181 178 180 174 169 168 156 143 119 143 165 273 300 297 256 239 234 233 236 231 226 232 248 258 265 272 278 284 290 295 300 304 307 311 313 315
186 189 186 187 186 186 185 185 184 186 188 181 176 169 164 166 181 178 215 249 269 278 262 240 231 233 229 224 235 248 254 260 266 274 280 286 292 297 301 305 308 310 312
190 192 189 189 188 187 185 182 185 190 191 190 190 193 191 188 166 167 179 218 251 279 290 265 235 231 231 223 238 249 255 260 266 271 277 283 287 291 296 301 305 307 309
193 185 188 189 187 184 184 184 188 192 193 198 200 197 198 202 184 177 175 174 237 279 272 263 262 231 230 224 238 246 254 261 266 269 274 279 282 286 292 298 301 304 307
181 180 185 187 185 184 185 183 193 195 194 200 202 202 205 202 196 198 189 181 191 248 269 249 252 253 231 226 244 237 243 262 268 270 273 278 281 285 292 298 301 304 305
178 179 184 186 186 186 186 187 191 193 196 200 197 200 207 203 200 198 199 201 200 209 246 245 233 240 238 243 248 237 244 265 269 272 276 281 284 288 294 299 301 302 306
180 182 184 185 187 188 188 192 196 191 199 201 198 202 208 201 201 204 199 200 206 201 237 256 230 225 226 252 275 258 254 257 271 276 281 285 288 292 295 298 301 304 307
183 184 182 185 189 190 190 194 196 195 199 202 201 201 206 200 206 205 202 207 210 206 217 248 249 229 234 239 261 276 277 267 263 278 284 288 291 296 297 299 304 307 311
184 182 184 189 191 191 193 197 197 197 201 203 200 202 203 199 207 206 204 209 212 209 211 225 246 231 240 232 276 281 280 275 278 281 291 291 293 298 301 304 307 311 313
187 186 189 192 192 191 193 194 194 197 200 201 200 201 202 201 206 204 205 209 205 201 202 216 237 240 242 226 218 267 289 279 286 291 294 294 298 302 308 312 312 313 316
190 187 187 190 191 191 193 192 193 194 195 197 199 201 202 201 202 201 199 200 195 199 197 207 226 227 233 230 241 230 262 297 286 277 306 299 300 296 306 312 312 313 318
187 186 189 189 191 196 193 188 188 191 192 194 196 197 196 197 201 201 199 194 189 192 199 201 213 219 230 225 218 209 241 309 295 313 313 293 288 285 291 290 309 317 320
185 187 190 189 194 198 189 186 186 187 190 194 193 189 188 192 192 194 195 192 191 190 189 191 202 215 217 210 192 207 215 225 254 299 327 284 299 295 301 308 314 318 322
186 189 190 190 192 193 185 184 182 186 187 190 191 188 187 186 185 179 175 174 181 188 193 191 191 201 200 189 182 185 190 212 273 310 19 285 306 299 310 306 312 323 327
184 187 187 185 188 190 181 178 173 183 185 187 185 183 183 183 178 171 167 166 163 163 138 141 137 126 119 126 125 109 96 77 286 279 24 286 302 307 300 294 308 323 327
180 180 184 186 187 187 178 173 170 176 178 179 175 179 183 179 175 171 173 171 173 174 148 128 113 91 84 93 109 124 153 150 243 275 258 287 307 331 314 295 296 308 316